GW5339 Weather Reports


time (UTC)temp
C
wind
direction
speed
KPH
gust
KPH
rain 1hr
cm
rain 24hr
cm
rain mn
cm
humidity
%
barometer
mb
20260510233033 23 260 0.0 1.6 0.00 0.00 0.00 45 1014.9
20260510231529 24 260 0.0 1.6 0.00 0.00 0.00 42 1014.7
20260510230024 24 256 0.0 4.8 0.00 0.00 0.00 39 1014.6
20260510224527 24 224 0.0 0.0 0.00 0.00 0.00 37 1014.5
20260510223026 25 224 0.0 0.0 0.00 0.00 0.00 36 1014.6
20260510221530 25 224 0.0 4.8 0.00 0.00 0.00 38 1014.5
20260510220028 26 64 0.0 3.2 0.00 0.00 0.00 32 1014.5
20260510214526 26 152 0.0 1.6 0.00 0.00 0.00 32 1014.5
20260510213027 26 236 0.0 1.6 0.00 0.00 0.00 32 1014.4
20260510211529 27 259 0.0 1.6 0.00 0.00 0.00 27 1014.4
20260510210018 27 272 1.6 4.8 0.00 0.00 0.00 30 1014.6
20260510204525 27 271 1.6 6.4 0.00 0.00 0.00 29 1014.5
20260510203026 26 268 1.6 6.4 0.00 0.00 0.00 30 1014.7
20260510201512 26 236 3.2 8.0 0.00 0.00 0.00 30 1014.7
20260510200014 26 266 0.0 4.8 0.00 0.00 0.00 32 1015.0
20260510194523 26 274 1.6 6.4 0.00 0.00 0.00 28 1015.0
20260510193022 26 214 3.2 9.7 0.00 0.00 0.00 27 1015.2
20260510191527 26 261 1.6 4.8 0.00 0.00 0.00 27 1015.3
20260510190014 27 74 0.0 6.4 0.00 0.00 0.00 25 1015.4
20260510184519 27 305 1.6 4.8 0.00 0.00 0.00 28 1015.4
20260510183020 27 320 0.0 3.2 0.00 0.00 0.00 29 1015.5
20260510181526 27 257 0.0 4.8 0.00 0.00 0.00 29 1015.6
20260510180028 27 214 0.0 4.8 0.00 0.00 0.00 28 1015.8
20260510174514 27 35 1.6 4.8 0.00 0.00 0.00 31 1015.9
20260510173019 27 51 1.6 6.4 0.00 0.00 0.00 28 1016.0
20260510171523 26 283 3.2 6.4 0.00 0.00 0.00 29 1016.3
20260510170026 27 244 0.0 9.7 0.00 0.00 0.00 32 1016.3
20260510164535 27 251 1.6 6.4 0.00 0.00 0.00 30 1016.3
20260510163016 26 48 0.0 8.0 0.00 0.00 0.00 32 1016.3
20260510161517 26 266 0.0 3.2 0.00 0.00 0.00 30 1016.6
20260510160023 26 34 1.6 4.8 0.00 0.00 0.00 33 1016.8
20260510154531 25 220 0.0 6.4 0.00 0.00 0.00 38 1016.7
20260510153029 26 257 0.0 4.8 0.00 0.00 0.00 34 1016.7
20260510151514 25 208 0.0 4.8 0.00 0.00 0.00 36 1016.8
20260510150022 25 127 0.0 3.2 0.00 0.00 0.00 38 1016.9
20260510144535 25 300 0.0 4.8 0.00 0.00 0.00 39 1016.8
20260510143028 24 231 1.6 3.2 0.00 0.00 0.00 37 1016.8
20260510141527 22 267 0.0 1.6 0.00 0.00 0.00 44 1016.8
20260510140020 22 30 0.0 4.8 0.00 0.00 0.00 48 1016.8
20260510134524 21 274 0.0 1.6 0.00 0.00 0.00 48 1016.9
20260510133025 20 273 0.0 1.6 0.00 0.00 0.00 59 1016.7
20260510131529 19 255 0.0 1.6 0.00 0.00 0.00 68 1016.8
20260510130028 18 255 0.0 0.0 0.00 0.00 0.00 76 1016.5
20260510124518 16 192 0.0 4.8 0.00 0.00 0.00 84 1016.5
20260510123022 14 72 0.0 0.0 0.00 0.00 0.00 88 1016.4
20260510121529 13 72 0.0 0.0 0.00 0.00 0.00 91 1016.2
20260510120010 12 72 0.0 0.0 0.00 0.00 0.00 91 1015.9
20260510114516 11 72 0.0 0.0 0.00 0.00 0.00 92 1015.9
20260510113024 10 72 0.0 1.6 0.00 0.00 0.00 91 1015.3
20260510111526 10 49 0.0 1.6 0.00 0.00 0.00 92 1015.2
20260510110031 10 302 0.0 0.0 0.00 0.00 0.00 92 1015.1
20260510104514 10 11 0.0 1.6 0.00 0.00 0.00 92 1014.9
20260510103018 10 11 0.0 0.0 0.00 0.00 0.00 92 1014.5
20260510101523 10 20 0.0 0.0 0.00 0.00 0.00 91 1014.2
20260510100026 10 20 0.0 0.0 0.00 0.00 0.00 91 1014.0
20260510094534 11 20 0.0 1.6 0.00 0.00 0.00 92 1013.9
20260510093016 10 20 0.0 1.6 0.00 0.00 0.00 92 1013.9
20260510091523 10 245 0.0 1.6 0.00 0.00 0.00 91 1013.7
20260510090024 11 245 0.0 1.6 0.00 0.00 0.00 91 1013.5
20260510084510 11 245 0.0 1.6 0.00 0.00 0.00 90 1013.5
20260510083013 11 13 0.0 3.2 0.00 0.00 0.00 92 1013.3
20260510081516 11 219 0.0 0.0 0.00 0.00 0.00 91 1013.2
20260510080023 12 4 0.0 0.0 0.00 0.00 0.00 91 1013.0
20260510074532 12 4 0.0 0.0 0.00 0.00 0.00 91 1012.8
20260510073027 12 4 0.0 0.0 0.00 0.00 0.00 91 1012.8
20260510071514 12 4 0.0 0.0 0.00 0.00 0.00 91 1012.7
20260510070019 12 4 0.0 0.0 0.00 0.00 0.00 91 1012.6
20260510064526 12 4 0.0 0.0 0.00 0.00 0.00 90 1012.7
20260510063023 13 4 0.0 0.0 0.00 0.00 0.00 90 1012.6
20260510061531 13 4 0.0 1.6 0.00 0.00 0.00 91 1012.7
20260510060036 13 4 0.0 0.0 0.00 0.00 0.00 90 1013.0
20260510054521 13 4 0.0 0.0 0.00 0.00 0.00 90 1013.1
20260510053023 13 4 0.0 0.0 0.00 0.00 0.00 89 1013.0
20260510051526 14 4 0.0 1.6 0.00 0.00 0.00 91 1013.0
20260510050030 13 245 0.0 0.0 0.00 0.00 0.00 91 1013.2
20260510044518 14 245 0.0 1.6 0.00 0.00 0.00 89 1013.2
20260510043022 14 201 0.0 0.0 0.00 0.00 0.00 89 1013.0
20260510041530 14 201 0.0 0.0 0.00 0.00 0.00 89 1013.1
20260510040026 15 201 0.0 0.0 0.00 0.00 0.00 88 1013.2
20260510034528 15 201 0.0 0.0 0.00 0.00 0.00 88 1013.1
20260510033019 15 201 0.0 0.0 0.00 0.00 0.00 87 1013.1
20260510031528 16 201 0.0 0.0 0.00 0.00 0.00 86 1013.1
20260510030027 16 201 0.0 0.0 0.00 0.00 0.00 87 1013.1
20260510024532 16 200 0.0 1.6 0.00 0.00 0.00 86 1013.1
20260510023042 16 286 0.0 0.0 0.00 0.00 0.00 84 1012.9
20260510021518 17 341 0.0 0.0 0.00 0.00 0.00 83 1012.8
20260510020024 17 239 0.0 0.0 0.00 0.00 0.00 82 1012.7
20260510014527 17 239 0.0 0.0 0.00 0.00 0.00 81 1012.3
20260510013029 18 239 0.0 1.6 0.00 0.00 0.00 80 1012.2
20260510011531 18 239 0.0 4.8 0.00 0.00 0.00 78 1011.9
20260510010026 19 252 0.0 1.6 0.00 0.00 0.00 77 1011.7
20260510004526 19 252 0.0 0.0 0.00 0.00 0.00 76 1011.3
20260510003028 20 250 0.0 3.2 0.00 0.00 0.00 74 1011.0
20260510001530 20 245 0.0 4.8 0.00 0.00 0.00 73 1010.8
20260510000028 20 212 0.0 3.2 0.00 0.00 0.00 73 1010.7
20260509234520 20 248 0.0 3.2 0.00 0.00 0.00 72 1010.5